[[[{"header":{"parameterUnit":"kt","parameterCategory":2,"dx":1,"dy":1,"la1":30.253999710083008,"la2":30.299108505249023,"lo1":-89.0895004272461,"lo2":-89.04439544677734,"nx":28,"ny":28,"refTime":"2022-10-04T21:00:00:Z","depth":0,"parameterNumber":1,"parameterNumberName":"U-component_of_WINDS"},"data":[-4.4886,-4.5023,-4.5015,-4.5169,-4.5188,-4.5292,-4.5327,-4.5371,-4.5404,-4.5528,-4.5599,-4.5605,-4.5635,-4.5718,-4.5795,-4.5796,-4.5829,-4.5885,-4.5876,-4.5632,-4.5597,-4.5565,-4.553,-4.5892,-4.5893,-4.613,-4.6132,-4.6134,-4.4711,-4.473,-4.4809,-4.4879,-4.4947,-4.4888,-4.4939,-4.5,-4.5095,-4.5137,-4.5205,-4.5314,-4.5399,-4.541,-4.5491,-4.5557,-4.5533,-4.5579,-4.5574,-4.5579,-4.5318,-4.5282,-4.5597,-4.5597,-4.5597,-4.5597,-4.5597,-4.5597,-4.4391,-4.4474,-4.451,-4.4595,-4.4627,-4.4675,-4.4753,-4.4757,-4.4834,-4.4915,-4.489,-4.4997,-4.5037,-4.5129,-4.5158,-4.5242,-4.5189,-4.5236,-4.5248,-4.526,-4.5276,-4.4935,-4.5255,-4.5254,-4.5254,-4.5253,-4.5252,0,-4.4153,-4.4139,-4.4213,-4.4285,-4.4346,-4.4401,-4.4449,-4.4497,-4.4464,-4.453,-4.4623,-4.4676,-4.478,-4.4868,-4.4941,-4.496,-4.4904,-4.4898,-4.493,-4.4943,-4.4947,-4.4947,-4.4521,-4.4888,-4.4884,-4.4882,-4.488,-4.4879,-4.3829,-4.3926,-4.3958,-4.4011,-4.4034,-4.4121,-4.4171,-4.4134,-4.4189,-4.4243,-4.4319,-4.4405,-4.4472,-4.4625,-4.4628,-4.4706,-4.4679,-4.482,-4.469,-4.4701,-4.4681,-4.4675,-4.4685,-4.4846,-4.485,-4.4853,-4.4856,0,-4.3647,-4.3629,-4.3776,-4.3797,-4.3806,-4.3911,-4.3929,-4.4011,-4.4004,-4.4116,-4.414,-4.413,-4.4223,-4.4202,-4.4304,-4.429,-4.4466,-4.4438,-4.4452,-4.4445,-4.4569,-4.4558,-4.4975,-4.5028,-4.4652,-4.4656,-4.4659,0,-4.3363,-4.3492,-4.3457,-4.3543,-4.3686,-4.3644,-4.3787,-4.3795,-4.3825,-4.3913,-4.3845,-4.3929,-4.3888,-4.397,-4.395,-4.4089,-4.4108,-4.4106,-4.4098,-4.4111,-4.4112,-4.4138,-4.412,-4.4079,-4.4076,-4.4075,-4.4073,0,-4.3079,-4.3211,-4.3351,-4.3378,-4.3412,-4.348,-4.3498,-4.3531,-4.3579,-4.3639,-4.3671,-4.3744,-4.3785,-4.3843,-4.3816,-4.3729,-4.3986,-4.386,-4.3983,-4.3984,-4.4039,-4.4036,-4.4412,-4.407,-4.407,-4.4069,-4.4068,0,-4.2845,-4.2905,-4.3111,-4.3137,-4.3173,-4.3266,-4.3333,-4.3407,-4.3448,-4.344,-4.3487,-4.3437,-4.3556,-4.3433,-4.3597,-4.3491,-4.3535,-4.3543,-4.3552,-4.3559,-4.3421,-4.3636,-4.3997,-4.4034,-4.357,-4.3566,-4.3562,0,-4.2527,-4.2728,-4.2691,-4.2887,-4.2977,-4.2892,-4.2995,-4.3031,-4.3029,-4.3105,-4.3102,-4.319,-4.3094,-4.3118,-4.3202,-4.3203,-4.3341,-4.3184,-4.3296,-4.33,-4.3287,-4.3619,-4.3677,-4.3921,-4.3508,-4.3514,-4.3518,0,-4.2276,-4.2313,-4.235,-4.2378,-4.2417,-4.2491,-4.2609,-4.2685,-4.2738,-4.2786,-4.2883,-4.3006,-4.2938,-4.2978,-4.2945,-4.3034,-4.3246,-4.2948,-4.2948,-4.3003,-4.3479,-4.3534,-4.3575,-4.3205,-4.3211,-4.3217,-4.3476,0,-4.1926,-4.2023,-4.2123,-4.2186,-4.2239,-4.236,-4.2333,-4.2393,-4.2355,-4.2348,-4.2491,-4.2514,-4.2591,-4.2631,-4.2594,-4.2804,-4.2765,-4.2691,-4.2567,-4.2786,-4.2871,-4.2905,-4.2444,-4.244,-4.2437,-4.2434,0,0,-4.1625,-4.1762,-4.1715,-4.1826,-4.1867,-4.1775,-4.1907,-4.1937,-4.2,-4.2032,-4.1963,-4.2138,-4.2159,-4.2336,-4.2402,-4.2433,-4.2468,-4.2392,-4.2682,-4.271,-4.2736,-4.2827,-4.2863,-4.2428,-4.2427,-4.2426,-4.2425,0,-4.149,-4.1512,-4.1641,-4.167,-4.171,-4.1695,-4.1727,-4.175,-4.1751,-4.1889,-4.1811,-4.1894,-4.2034,-4.2066,-4.2101,-4.2371,-4.2306,-4.2397,-4.255,-4.2651,-4.2683,-4.2711,-4.2808,-4.2843,-4.2417,-4.2418,-4.2418,0,-4.1238,-4.1254,-4.1312,-4.1401,-4.1426,-4.152,-4.1384,-4.1488,-4.1557,-4.1449,-4.1588,-4.1597,-4.1638,-4.1807,-4.1883,-4.1822,-4.2161,-4.2048,-4.2068,-4.2075,-4.2171,-4.221,-4.2244,-4.1791,-4.1789,-4.1787,0,0,-4.1125,-4.1213,-4.1217,-4.137,-4.1391,-4.137,-4.1416,-4.1381,-4.1418,-4.1434,-4.1442,-4.1482,-4.1563,-4.1617,-4.1691,-4.1882,-4.1887,-4.1972,-4.2002,-4.2026,-4.2046,-4.2149,-4.2187,-4.178,-4.1779,-4.1779,0,0,-4.1071,-4.108,-4.1033,-4.1206,-4.1245,-4.1258,-4.1353,-4.1296,-4.1359,-4.1342,-4.1288,-4.1296,-4.1454,-4.1466,-4.1364,-4.1646,-4.1525,-4.1549,-4.1633,-4.167,-4.1699,-4.1692,-4.1227,0,0,0,0,0,-4.0916,-4.1078,-4.1036,-4.1061,-4.1171,-4.1282,-4.1296,-4.1254,-4.1169,-4.1246,-4.1244,-4.1171,-4.14,-4.1309,-4.1335,-4.1448,-4.1679,-4.1697,-4.1713,-4.1866,-4.1905,-4.1938,0,0,0,0,0,0,-4.0926,-4.0956,-4.1032,-4.1052,-4.1077,-4.1275,-4.1122,-4.1115,-4.116,-4.1144,-4.1174,-4.1172,-4.1139,-4.1293,-4.1317,-4.1425,-4.1219,-4.1686,-4.1701,-4.1715,-4.188,-4.1912,-4.1939,0,0,0,0,0,-4.0933,-4.0957,-4.1144,-4.105,-4.1071,-4.1055,-4.1116,-4.1109,-4.1142,-4.1139,-4.1134,-4.1107,-4.1143,-4.116,-4.1307,-4.1415,-4.1202,-4.1211,-4.1696,-4.1708,-4.1718,-4.1895,0,0,0,0,0,0,-4.0938,-4.0952,-4.1148,-4.1153,-4.0984,-4.1043,-4.105,-4.1103,-4.1133,-4.1131,-4.1068,-4.1055,-4.1148,-4.1161,-4.1174,-4.1414,-4.1188,-4.1197,-4.1203,-4.1705,-4.1714,-4.1722,0,0,0,0,0,0,-4.0938,-4.0957,-4.115,-4.107,-4.1065,-4.1032,-4.1039,-4.1157,-4.1135,-4.1061,-4.1051,-4.1062,-4.1128,-4.1162,-4.1172,-4.1358,-4.1177,-4.1186,-4.1192,-4.1196,-4.1712,-4.172,0,0,0,0,0,0,-4.0945,-4.0961,-4.1068,-4.1065,-4.106,-4.1113,-4.1135,-4.1251,-4.1065,-4.1061,-4.1047,-4.1039,-4.1131,-4.114,-4.1171,-4.1353,-4.1357,-4.1178,-4.1184,-4.1188,-4.1191,0,0,0,0,0,0,0,-4.0951,-4.0856,-4.1118,-4.1061,-4.1056,-4.1199,-4.12,-4.1201,-4.1063,-4.1056,-4.1049,-4.1043,-4.1127,-4.1137,-4.1146,-4.1349,0,0,-4.1177,-4.1181,0,0,0,0,0,0,0,0,-4.0848,-4.0854,-4.1119,-4.112,-4.1121,-4.1199,-4.12,-4.1201,-4.1062,-4.1057,-4.1051,-4.1045,-4.113,-4.1137,-4.1145,0,0,0,0,0,0,0,0,0,0,0,0,0,0,0,-4.1119,-4.112,0,-4.1199,-4.12,-4.1201,-4.1061,-4.1057,-4.1052,-4.1048,-4.1132,-4.1138,-4.1145,0,0,0,0,0,0,0,0,0,0,0,0,0,0,0,0,0,0,0,0,0,0,0,0,0,0,0,0,0,0,0,0,0,0,0,0,0,0,0,0,0,0,0,0,0,0,0,0,0,0,0,0,0,0,0,0,0,0,0,0,0,0,0,0,0,0,0,0,0]}],[{"header":{"parameterUnit":"kt","parameterCategory":2,"dx":1,"dy":1,"la1":30.253999710083008,"la2":30.299108505249023,"lo1":-89.0895004272461,"lo2":-89.04439544677734,"nx":28,"ny":28,"refTime":"2022-10-04T21:00:00:Z","depth":0,"parameterNumber":2,"parameterNumberName":"V-component_of_WINDS"},"data":[5.3557,5.3584,5.3613,5.3655,5.3687,5.372,5.374,5.3769,5.3798,5.3838,5.3865,5.3892,5.3929,5.3965,5.3994,5.4005,5.4014,5.4004,5.4018,5.4042,5.4047,5.4051,5.4048,5.4006,5.4006,5.3989,5.3989,5.3989,5.3572,5.3606,5.3637,5.3686,5.3712,5.3739,5.3779,5.3798,5.3825,5.3861,5.3889,5.3925,5.3955,5.3996,5.4029,5.4039,5.4051,5.4045,5.4044,5.4049,5.4076,5.4072,5.4035,5.4035,5.4035,5.4035,5.4035,5.4035,5.3608,5.3623,5.367,5.3704,5.3736,5.3768,5.3786,5.3822,5.385,5.3891,5.3916,5.3946,5.3984,5.4036,5.4059,5.4081,5.4091,5.4092,5.4092,5.4091,5.4087,5.4106,5.4087,5.4088,5.4088,5.4088,5.4088,0,5.3642,5.3666,5.3698,5.3738,5.3764,5.3796,5.3831,5.3842,5.3896,5.3917,5.3949,5.3971,5.4013,5.4044,5.4079,5.4103,5.4129,5.4135,5.4135,5.4123,5.4107,5.4115,5.4156,5.4134,5.4135,5.4135,5.4135,5.4136,5.3679,5.3694,5.3756,5.3774,5.3801,5.3829,5.3851,5.3898,5.3918,5.3965,5.3974,5.4006,5.4034,5.4077,5.4114,5.4144,5.4157,5.4146,5.4161,5.415,5.4155,5.4153,5.4154,5.4141,5.414,5.414,5.4139,0,5.3697,5.3744,5.3774,5.3834,5.3849,5.386,5.3909,5.3925,5.3957,5.3982,5.399,5.4039,5.4068,5.4107,5.4146,5.4166,5.418,5.4192,5.4168,5.4172,5.4165,5.4164,5.4138,5.4136,5.4182,5.4181,5.4181,0,5.3746,5.3762,5.383,5.3845,5.3865,5.3913,5.3929,5.3959,5.3995,5.4015,5.4053,5.407,5.4119,5.4141,5.4169,5.4188,5.4196,5.4211,5.4218,5.4207,5.4205,5.4216,5.4217,5.4235,5.4235,5.4235,5.4235,0,5.3768,5.3823,5.3849,5.3869,5.3932,5.3942,5.3969,5.4009,5.4029,5.4061,5.4074,5.4107,5.4124,5.4148,5.4184,5.4193,5.4209,5.4229,5.4224,5.4223,5.4224,5.4223,5.4192,5.4235,5.4235,5.4236,5.4236,0,5.3813,5.3849,5.388,5.3934,5.3946,5.3962,5.4,5.4023,5.4062,5.4082,5.4107,5.4136,5.4158,5.4175,5.4204,5.4205,5.4219,5.4236,5.4237,5.4239,5.4257,5.4232,5.4199,5.4197,5.4244,5.4244,5.4244,0,5.3825,5.3869,5.3911,5.3938,5.3964,5.4007,5.4025,5.4059,5.4088,5.4111,5.4142,5.4167,5.4189,5.4202,5.4211,5.4242,5.424,5.4244,5.4272,5.4273,5.426,5.4231,5.4216,5.4203,5.4245,5.4245,5.4245,0,5.384,5.392,5.3922,5.3946,5.4002,5.4022,5.4043,5.4081,5.4094,5.4128,5.4145,5.4182,5.4199,5.422,5.4247,5.4254,5.4243,5.4271,5.4273,5.4264,5.425,5.4235,5.4233,5.4259,5.4259,5.4259,5.4246,0,5.3897,5.3925,5.3933,5.3985,5.4009,5.4028,5.4074,5.4091,5.4117,5.4147,5.4172,5.4209,5.4243,5.4252,5.4275,5.428,5.4285,5.4303,5.432,5.4301,5.4298,5.4297,5.4322,5.4322,5.4323,5.4324,0,0,5.3896,5.3938,5.3983,5.4007,5.4029,5.4073,5.4089,5.4115,5.4166,5.4179,5.419,5.4247,5.4275,5.4301,5.4298,5.4312,5.4317,5.4321,5.431,5.4309,5.4307,5.4303,5.4301,5.4325,5.4325,5.4325,5.4325,0,5.3927,5.3961,5.3979,5.4009,5.4055,5.4087,5.4091,5.4143,5.4163,5.419,5.4223,5.4243,5.4286,5.4312,5.4331,5.432,5.4342,5.4327,5.4307,5.4315,5.4313,5.4311,5.4306,5.4304,5.4327,5.4327,5.4327,0,5.3949,5.399,5.4004,5.4058,5.4088,5.4113,5.4144,5.4168,5.4186,5.4229,5.4254,5.428,5.4318,5.4337,5.4347,5.4356,5.4363,5.4369,5.4366,5.4367,5.4377,5.4374,5.4371,5.4407,5.4407,5.4407,0,0,5.3968,5.3996,5.4053,5.4068,5.4085,5.4133,5.415,5.4177,5.4213,5.4227,5.426,5.4292,5.4318,5.4333,5.436,5.4374,5.4384,5.4377,5.4373,5.437,5.4369,5.4378,5.4375,5.4407,5.4407,5.4407,0,0,5.3977,5.4046,5.4066,5.409,5.4125,5.418,5.4186,5.4211,5.424,5.4243,5.4287,5.4297,5.4315,5.4338,5.4339,5.4366,5.4383,5.4384,5.435,5.4346,5.4343,5.4336,5.4374,0,0,0,0,0,5.4032,5.4038,5.4056,5.4067,5.4134,5.4171,5.4179,5.4218,5.423,5.4234,5.4266,5.4289,5.4348,5.435,5.4359,5.4356,5.4413,5.4412,5.4411,5.4372,5.4367,5.4363,0,0,0,0,0,0,5.4037,5.4051,5.4056,5.4111,5.4126,5.4171,5.4199,5.421,5.423,5.4235,5.4283,5.4291,5.4322,5.4348,5.4355,5.4353,5.4372,5.4413,5.4412,5.4411,5.437,5.4366,5.4363,0,0,0,0,0,5.4041,5.4052,5.4151,5.4111,5.4124,5.4177,5.42,5.4209,5.4225,5.4274,5.4283,5.4252,5.4321,5.4329,5.4353,5.4348,5.4367,5.4369,5.4412,5.4411,5.4411,5.4368,0,0,0,0,0,0,5.4044,5.4059,5.4154,5.416,5.4112,5.4175,5.4187,5.4207,5.4264,5.4273,5.4246,5.4248,5.432,5.4327,5.4333,5.4345,5.4363,5.4366,5.4367,5.4412,5.4411,5.4411,0,0,0,0,0,0,5.4054,5.4064,5.4157,5.4157,5.4163,5.4173,5.4184,5.4208,5.4263,5.4232,5.4236,5.4246,5.431,5.4325,5.433,5.4367,5.436,5.4363,5.4364,5.4365,5.4411,5.4411,0,0,0,0,0,0,5.4059,5.4067,5.4156,5.416,5.4165,5.4228,5.4195,5.4261,5.4267,5.4229,5.4268,5.4268,5.4307,5.4313,5.4328,5.4362,5.4366,5.436,5.4362,5.4363,5.4364,0,0,0,0,0,0,0,5.4062,5.3997,5.4123,5.4163,5.4167,5.421,5.4211,5.4213,5.4267,5.4267,5.4268,5.4268,5.4346,5.4349,5.4352,5.4359,0,0,5.436,5.4361,0,0,0,0,0,0,0,0,5.3994,5.3996,5.4123,5.4124,5.4125,5.421,5.4211,5.4212,5.4267,5.4267,5.4268,5.4268,5.4347,5.4349,5.4351,0,0,0,0,0,0,0,0,0,0,0,0,0,0,0,5.4123,5.4124,0,5.421,5.4211,5.4212,5.4267,5.4267,5.4267,5.4268,5.4348,5.435,5.4351,0,0,0,0,0,0,0,0,0,0,0,0,0,0,0,0,0,0,0,0,0,0,0,0,0,0,0,0,0,0,0,0,0,0,0,0,0,0,0,0,0,0,0,0,0,0,0,0,0,0,0,0,0,0,0,0,0,0,0,0,0,0,0,0,0,0,0,0,0]}]]]